Weather in Gorbatovka

Russia / Nizhny Novgorod Oblast'     56°15′43″N   43°44′01″E
temp.,
°C
wind,
m/s
gust,
m/s
humid.,
%
clouds,
%
prec.,
mm/h
press.,
hPa
HPBL,
m
8 march, mon
mon800:00−5nnw3890100 0.9 991368
03:00−11w3386100 1.0 99241
06:00−10wsw389579 0.1 994257
09:00−9w489485 0.3 996389
12:00−6wsw4690100 0.1 997658
15:00−5w3685100 0.3 998815
18:00−9wnw349191 0.2 100087
21:00−12wnw389662 0.2 1004203
9 march, tue
tue900:00−14wnw359787 0.1 1006116
03:00−16wnw239890 0.1 100855
06:00−18nw249898 0.1 101078
09:00−16nnw359693 0.1 1011244
12:00−14nnw359396 0.0 1012383
15:00−13nnw469198 0.1 1013445
18:00−17nnw389593 0.0 1014197
21:00−17nnw389695 0.1 1017245
10 march, wed
wed1000:00−18n3896100 0.1 1018285
03:00−21nnw489799 0.1 1020274
06:00−25nnw489697 0.0 1022255
09:00−25nnw489573 0.0 1024270
12:00−21nnw479250 0.0 1024432
15:00−18nnw478848 0.0 1025481
18:00−21nnw34920 0.0 102564
21:00−22wnw239919 0.0 102725
11 march, thu
thu1100:00−23wnw2310069 0.0 102829
03:00−24wnw239963 0.0 102921
06:00−25wnw239933 0.0 102938
09:00−20wnw369634 0.0 1030223
12:00−13wnw369138 0.0 1030355
15:00−9wnw478923 0.0 1029498
18:00−12w339569 0.0 102973
21:00−15w239750 0.0 103138
12 march, fri
fri1200:00−18w239815 0.0 103126
03:00−19wsw239722 0.0 103136
06:00−21wsw23990 0.0 103230
09:00−16sw36944 0.0 1032227
12:00−12sw47900 0.0 1032389
15:00−9sw48840 0.0 1030546
18:00−13sw37900 0.0 1030136
21:00−16ssw410930 0.0 1031194